Belmar-Farmingdale, NJ

4:07 PM EST on November 16, 2019 (GMT -0500)
Allaire

Weather History for KBLM - September, 2019

Change the Weather History Date:

Saturday, September 28, 2019

  Actual Average Record
Temperature  
Mean Temperature 68 °F -  
Max Temperature 80 °F 67 °F 82 °F (2014)
Min Temperature 57 °F 52 °F 46 °F (2001)
Cooling Degree Days 4    
Growing Degree Days 18 (Base 50)    
Moisture  
Dew Point 64 °F    
Average Humidity 83    
Maximum Humidity 97    
Minimum Humidity 50    
Precipitation  
Precipitation 0.00 in - - ()
Sea Level Pressure  
Sea Level Pressure 30.11 in    
Wind  
Wind Speed 5 mph ()    
Max Wind Speed 12 mph    
Max Gust Speed -    
Visibility 10.0 miles    
Events      
Averages and records for this station are not official NWS values.
T = Trace of Precipitation, MM = Missing Value Source: Averaged Metar Reports

Daily Weather History Graph

Daily Weather History Graph

Search for Another Location

Airport or City:

Astronomy

Sep. 28, 2019 Rise Set
Actual Time 6:49 AM EDT 6:44 PM EDT
Civil Twilight 6:22 AM EDT 7:11 PM EDT
Nautical Twilight 5:50 AM EDT 7:42 PM EDT
Astronomical Twilight 5:19 AM EDT 8:14 PM EDT
Moon 6:22 AM EDT (9/28) 7:08 PM EDT (9/28)
Length of Visible Light 12h 48m
Length of Day
11h 54m
Waning Crescent, 0% of the Moon is Illuminated
Sep 28
Waning Crescent
Sep 28
New
Oct 5
First Quarter
Oct 13
Full
Oct 21
Last Quarter

Hourly Weather History & Observations

Time (EDT) Temp. Heat Index Dew Point Humidity Pressure Visibility Wind Dir Wind Speed Gust Speed Precip Events Conditions
12:56 AM 60.1 °F - 57.0 °F 90% 30.14 in 10.0 mi Calm Calm - N/A   Clear
1:56 AM 61.0 °F - 57.0 °F 87% 30.14 in 10.0 mi South 4.6 mph - N/A   Clear
2:56 AM 60.1 °F - 57.9 °F 93% 30.13 in 10.0 mi South 3.5 mph - N/A   Clear
3:56 AM 60.1 °F - 57.9 °F 93% 30.12 in 10.0 mi South 4.6 mph - N/A   Clear
4:56 AM 61.0 °F - 59.0 °F 93% 30.14 in 10.0 mi SSW 4.6 mph - N/A   Clear
5:56 AM 57.9 °F - 57.0 °F 97% 30.16 in 10.0 mi West 3.5 mph - N/A   Clear
6:56 AM 60.1 °F - 57.9 °F 93% 30.15 in 10.0 mi SSW 3.5 mph - N/A   Clear
7:56 AM 63.0 °F - 60.1 °F 90% 30.17 in 10.0 mi SW 4.6 mph - N/A   Clear
8:56 AM 68.0 °F - 62.1 °F 81% 30.15 in 10.0 mi South 8.1 mph - N/A   Clear
9:56 AM 72.0 °F - 62.1 °F 71% 30.14 in 10.0 mi South 9.2 mph - N/A   Clear
10:56 AM 78.1 °F - 57.9 °F 50% 30.14 in 10.0 mi SSW 11.5 mph - N/A   Clear
11:56 AM 75.9 °F - 64.9 °F 69% 30.13 in 10.0 mi SSE 6.9 mph - N/A   Partly Cloudy
12:56 PM 80.1 °F 82.1 °F 66.0 °F 62% 30.11 in 10.0 mi South 8.1 mph - N/A   Mostly Cloudy
1:56 PM 78.1 °F - 68.0 °F 71% 30.09 in 10.0 mi SSE 6.9 mph - N/A   Scattered Clouds
2:56 PM 78.1 °F - 69.1 °F 74% 30.07 in 10.0 mi SSE 9.2 mph - N/A   Mostly Cloudy
3:56 PM 78.1 °F - 69.1 °F 74% 30.07 in 10.0 mi SSE 9.2 mph - N/A   Overcast
4:56 PM 79.0 °F - 70.0 °F 74% 30.06 in 10.0 mi SSE 10.4 mph - N/A   Partly Cloudy
5:56 PM 75.9 °F - 70.0 °F 82% 30.05 in 10.0 mi SSE 8.1 mph - N/A   Partly Cloudy
6:56 PM 73.9 °F - 70.0 °F 87% 30.08 in 10.0 mi Variable 4.6 mph - N/A   Clear
7:56 PM 73.0 °F - 70.0 °F 90% 30.08 in 10.0 mi South 3.5 mph - N/A   Scattered Clouds
8:56 PM 72.0 °F - 70.0 °F 93% 30.09 in 10.0 mi South 5.8 mph - N/A   Clear
9:56 PM 72.0 °F - 70.0 °F 93% 30.10 in 10.0 mi SSW 6.9 mph - N/A   Clear
10:56 PM 71.1 °F - 70.0 °F 96% 30.11 in 10.0 mi Calm Calm - N/A   Clear
11:56 PM 71.1 °F - 70.0 °F 96% 30.09 in 10.0 mi SSW 3.5 mph - 0.00 in   Clear